Retour au catalogue

COSMOS 2327

ActifMilitairePO
NORAD 23773·PAYLOAD·🇷🇺 Russia

Lancé Jan 16, 1996 depuis Plesetsk Cosmodrome

Loading…

Prochains Passages (prochaines 24 heures)

TLE

FraisSource: Space-Track

Époque: Sep 14, 2026, 17:16 UTC

1 23773U 96004A   26257.71946189  .00000044  00000-0  29694-4 0  9990
2 23773  82.9808  58.8826 0048059  10.4316   0.7124 13.74773675537938

Suivez COSMOS 2327 en temps réel avec AllMySat

Download on the App Store